GW0890 Weather Reports


time (UTC)temp
C
wind
direction
speed
KPH
gust
KPH
rain 1hr
cm
rain 24hr
cm
rain mn
cm
humidity
%
barometer
mb
20260831204523 33 32 4.8 12.9 0.00 0.00 0.00 62 1016.1
20260831203022 33 52 6.4 12.9 0.00 0.00 0.00 61 1016.2
20260831201524 32 49 4.8 9.7 0.00 0.00 0.00 62 1016.4
20260831200017 32 57 1.6 9.7 0.00 0.00 0.00 63 1016.6
20260831194514 32 214 3.2 9.7 0.00 0.00 0.00 68 1016.7
20260831193024 33 173 0.0 6.4 0.00 0.00 0.00 62 1016.8
20260831191511 32 196 0.0 8.0 0.00 0.00 0.00 63 1017.0
20260831190016 32 153 8.0 14.5 0.00 0.00 0.00 63 1017.3
20260831184510 32 72 6.4 11.3 0.00 0.00 0.00 66 1017.4
20260831183005 32 24 3.2 11.3 0.00 0.00 0.00 70 1017.4
20260831181506 31 41 4.8 11.3 0.00 0.00 0.00 72 1017.8
20260831181501 31 43 4.8 11.3 0.00 0.00 0.00 73 1017.8
20260831180112 31 36 4.8 12.9 0.00 0.00 0.00 72 1017.7
20260831174554 30 77 6.4 12.9 0.00 0.00 0.00 74 1017.8
20260831173124 30 32 0.0 11.3 0.00 0.00 0.00 74 1018.0
20260831171523 30 17 1.6 14.5 0.00 0.00 0.00 75 1018.1
20260831170033 30 22 9.7 14.5 0.00 0.00 0.00 75 1018.1
20260831164520 29 67 6.4 14.5 0.00 0.00 0.00 78 1018.3
20260831163011 28 61 6.4 14.5 0.00 0.00 0.00 80 1018.2
20260831161508 27 41 1.6 12.9 0.00 0.00 0.00 83 1018.4
20260831160034 26 307 0.0 0.0 0.00 0.00 0.00 87 1018.5
20260831154533 25 311 0.0 0.0 0.00 0.00 0.00 90 1018.5
20260831153023 24 296 0.0 0.0 0.00 0.00 0.00 95 1018.5
20260831151521 23 213 0.0 0.0 0.00 0.00 0.00 98 1018.5
20260831150022 23 213 0.0 0.0 0.00 0.00 0.00 99 1018.7
20260831144512 23 213 0.0 0.0 0.00 0.00 0.00 99 1018.6
20260831143006 22 212 0.0 0.0 0.00 0.00 0.00 100 1018.5
20260831141501 22 212 0.0 0.0 0.00 0.00 0.00 100 1018.4
20260831140059 22 212 0.0 0.0 0.00 0.00 0.00 100 1018.3
20260831134553 22 212 0.0 0.0 0.00 0.00 0.00 100 1018.2
20260831133048 22 212 0.0 0.0 0.00 0.00 0.00 100 1018.3
20260831131543 21 212 0.0 0.0 0.00 0.00 0.00 100 1018.4
20260831130047 21 212 0.0 0.0 0.00 0.00 0.00 100 1018.3
20260831124541 21 212 0.0 0.0 0.00 0.00 0.00 100 1018.1
20260831123042 20 212 0.0 0.0 0.00 0.00 0.00 99 1018.1
20260831121543 20 212 0.0 0.0 0.00 0.00 0.00 99 1018.2
20260831120037 20 212 0.0 0.0 0.00 0.00 0.00 99 1018.1
20260831114535 20 212 0.0 0.0 0.00 0.00 0.00 99 1018.0
20260831113032 20 212 0.0 0.0 0.00 0.00 0.00 99 1017.8
20260831111529 20 212 0.0 0.0 0.00 0.00 0.00 99 1017.6
20260831110029 20 212 0.0 0.0 0.00 0.00 0.00 99 1017.5
20260831104530 20 212 0.0 0.0 0.00 0.00 0.00 99 1017.5
20260831103056 20 212 0.0 0.0 0.00 0.00 0.00 99 1017.4
20260831101556 20 212 0.0 0.0 0.00 0.00 0.00 99 1017.3
20260831100105 20 212 0.0 0.0 0.00 0.00 0.00 99 1017.3
20260831094552 20 212 0.0 0.0 0.00 0.00 0.00 99 1017.2
20260831093052 20 212 0.0 0.0 0.00 0.00 0.00 99 1017.2
20260831091551 20 211 0.0 0.0 0.00 0.00 0.00 99 1017.2
20260831090021 20 211 0.0 0.0 0.00 0.00 0.00 99 1017.2
20260831084533 20 211 0.0 0.0 0.00 0.00 0.00 99 1017.1
20260831083035 20 211 0.0 0.0 0.00 0.00 0.00 99 1017.1
20260831081517 20 211 0.0 0.0 0.00 0.00 0.00 99 1016.9
20260831080026 20 211 0.0 0.0 0.00 0.00 0.00 99 1016.8
20260831074517 20 211 0.0 0.0 0.00 0.00 0.00 99 1016.8
20260831073018 20 211 0.0 0.0 0.00 0.00 0.00 99 1016.8
20260831071510 20 211 0.0 0.0 0.00 0.00 0.00 99 1016.8
20260831070008 21 211 0.0 0.0 0.00 0.00 0.00 99 1016.8
20260831064509 21 211 0.0 0.0 0.00 0.00 0.00 99 1017.0
20260831063004 21 211 0.0 3.2 0.00 0.00 0.00 99 1016.9
20260831061503 21 211 0.0 0.0 0.00 0.00 0.00 98 1017.0
20260831060002 21 211 0.0 1.6 0.00 0.00 0.00 99 1017.1
20260831054603 21 211 0.0 0.0 0.00 0.00 0.00 98 1017.1
20260831053158 21 210 0.0 0.0 0.00 0.00 0.00 98 1017.2
20260831051554 21 210 0.0 0.0 0.00 0.00 0.00 99 1017.3
20260831050049 21 210 0.0 0.0 0.00 0.00 0.00 98 1017.2
20260831044554 21 210 0.0 0.0 0.00 0.00 0.00 98 1017.2
20260831043048 22 210 0.0 0.0 0.00 0.00 0.00 98 1017.3
20260831041517 22 209 0.0 0.0 0.00 0.00 0.00 98 1017.4
20260831040021 22 209 0.0 0.0 0.00 0.00 0.00 98 1017.5
20260831034519 22 209 0.0 0.0 0.00 0.00 0.00 98 1017.5
20260831033114 22 209 0.0 0.0 0.00 0.00 0.00 98 1017.5
20260831031518 22 209 0.0 3.2 0.00 0.00 0.00 98 1017.4
20260831030013 22 209 0.0 0.0 0.00 0.00 0.00 98 1017.4
20260831024512 22 209 0.0 0.0 0.00 0.00 0.00 98 1017.4
20260831023013 22 209 0.0 0.0 0.00 0.00 0.00 98 1017.3
20260831021509 22 209 0.0 0.0 0.00 0.00 0.00 98 1017.2
20260831020009 22 209 0.0 0.0 0.00 0.00 0.00 97 1017.2
20260831014509 22 207 0.0 3.2 0.00 0.00 0.00 97 1017.2
20260831013008 23 205 0.0 0.0 0.00 0.00 0.00 97 1017.2
20260831011509 23 205 0.0 3.2 0.00 0.00 0.00 97 1017.3
20260831010009 23 205 0.0 1.6 0.00 0.00 0.00 96 1017.0
20260831004600 23 205 0.0 0.0 0.00 0.00 0.00 96 1016.8
20260831003100 23 204 0.0 0.0 0.00 0.00 0.00 95 1016.5
20260831001606 24 203 0.0 0.0 0.00 0.00 0.00 95 1016.7
20260830234556 25 203 0.0 0.0 0.00 0.00 0.00 93 1016.3
20260830233105 26 200 0.0 0.0 0.00 0.00 0.00 92 1016.1
20260830231604 26 200 0.0 0.0 0.00 0.00 0.00 92 1015.9
20260830230056 25 200 0.0 0.0 0.00 0.00 0.00 92 1015.7
20260830224610 26 197 0.0 0.0 0.00 0.00 0.00 92 1015.8
20260830223055 26 196 0.0 0.0 0.00 0.00 0.00 91 1015.8
20260830221601 25 196 0.0 1.6 0.00 0.00 0.00 92 1016.1
20260830220055 25 194 0.0 3.2 0.00 0.00 0.00 92 1016.4
20260830214555 25 194 0.0 6.4 0.00 0.00 0.00 92 1016.5
20260830213047 26 189 3.2 8.0 0.00 0.00 0.00 90 1016.4
20260830211545 26 188 3.2 4.8 0.00 0.00 0.00 88 1016.6
20260830210044 26 188 4.8 6.4 0.00 0.00 0.00 87 1016.6